Location: Équennes
(49.7375°N, 1.9622°E)
Time: 01:28:57
(UTC+00:00)

SL-08 R/B - Pass Details

Date: 28 January 2023
Orbit: 947 x 992 km, 83.0° (Epoch: 31 March)

Event Time Altitude Azimuth Distance (km) Brightness Sun altitude
Rises 19:03:34 0° 351° (N) 3,662 7.6 -23.1°
Reaches altitude 10° 19:06:05 10° 354° (N) 2,718 6.9 -23.5°
Maximum altitude 19:12:19 73° 78° (ENE) 1,023 4.3 -24.5°
Enters shadow 19:17:36 15° 163° (SSE) 2,377 6.3 -25.4°
